Last updated items

date Model, P/N Item
20.01.2019 22-00012-00 TUC02 Tape Drive Cleaning Kit
19.01.2019 PDP8L PDP 8/L
19.01.2019 PDP8E PDP8-E
19.01.2019 PDP8S PDP-8/S
18.01.2019 34-83566-01 Carry Case
18.01.2019 PLCARDS playing cards
17.01.2019 PCP11-B2 pc320p laptop
12.01.2019 DEFPA-AB, 54-22499-02 Digital FDDI Network Interface PCI MMF/SC
12.01.2019 DE204, 54-22333 PC EISA ETHERWORKS 10BT NIC
12.01.2019 49ZBM-B9 Microvax 3100-96
12.01.2019 DV-31ETA-AA 3100-20E (CPU, MEM, BASIC CONFIG)
12.01.2019 DV-31DTA-AA 3100-10E (CPU, MEM, BASIC CONFIG)
12.01.2019 30-45494-01 SWXRA POWER SUPPLY
12.01.2019 70-29764-04 DPT POWER SUPPLY UNIT SHGZZ-DT
12.01.2019 30-48191-04 100-240 VOLTS 2.5-1.2 AMP, BLUE
12.01.2019 30-41069-01 ASTEC 300W ALPHASERVER PWR SUP
10.01.2019 3X-LK464-A2 LK464-A2 HP keyboard
10.01.2019 LK501-AA KEYBOARD FOR PM30 5000/20 SYSTEM
10.01.2019 LK401-DQ KEYBOARD FOR VT220/320/330/420
10.01.2019 PC7XL-AA PS/2 KEYBOARD
10.01.2019 DEC-2000 DIN-9 keyboard
10.01.2019 LK444-AV PORTUGUESE KEYBOARD
10.01.2019 LK40W-AA FROST WHITE LK401 KEYBOARD
09.01.2019 DS-EZ716-VW, 16-00970-01 1.6GB 5.25 Wide Ultra SCSI SSD
09.01.2019 EZ54R-VA 428MB SSD
09.01.2019 EZ51R-VA 107 Mbs SCSI SSD Disk
08.01.2019 LK471-A2 PC KEYBOARD FOR WINDOWS
08.01.2019 LK97W-A2, 12-23640-01 DEC PC KEYBOARD, WHITE
08.01.2019 LK453-AA KEYBOARD, W/WIPS (LK411)
08.01.2019 LK451-AA KEYBOARD
08.01.2019 LK41R-AA LK411 108 KEY KEYBOARD
07.01.2019 LK201, 70-23983 rj11 terminal keyboard
07.01.2019 LK201-AA, 70-23983-AA GENERAL TERM
07.01.2019 PCXLA-HT, 12-11660-12 ps/2 keyboard
07.01.2019 PCXLA-LT, 12-25510-12 ps/2 keyboard
07.01.2019 692QJ-B9 4700A SYS, 128MB
07.01.2019 VT101 VT101 terminal
07.01.2019 VS60S-A2 VAXStation 3520
07.01.2019 VS46K-AB VS4000-60 55MHZ SYSTEM, 40MB, 4PLN
07.01.2019 871-C 871C Power Controller
07.01.2019 VS46K-AD VS4000-60 SYSTEM, 40MB, 8PLN
06.01.2019 17-03948-01 AXP2100 INT SCSI CABLE
06.01.2019 54-20854 24 Plane Frame Buffer with GS-2
06.01.2019 70-25453-01 MOUNTING BRACKET FOR 54-17388
01.01.2019 74-50862-01 pc500 bottom bay panel
01.01.2019 74-50861-01 pc500 middle bay panel
01.01.2019 74-50758-01 DEC PC 5000 FRONT PANEL BEZEL
01.01.2019 21-40756-01 DECchip 21041 PCI Ethernet LAN Controller
01.01.2019 PC7XS-AA 2 BUTTON PC MOUSE
01.01.2019 H8585-AC, 12-36054-03 CONNECTOR M58-DA25
2 3 4 5 6 7 8 9 10 11..18 »»